Year,Month,Day,Hour,Minute,Value (Times are PST for temperature in C)
2017,09,02,00,00,16.60
2017,09,02,00,01,16.60
2017,09,02,00,02,16.60
2017,09,02,00,03,16.60
2017,09,02,00,04,16.60
2017,09,02,00,05,16.60
2017,09,02,00,06,16.60
2017,09,02,00,07,16.50
2017,09,02,00,08,16.50
2017,09,02,00,09,16.50
2017,09,02,00,10,16.50
2017,09,02,00,11,16.50
2017,09,02,00,12,16.40
2017,09,02,00,13,16.40
2017,09,02,00,14,16.40
2017,09,02,00,15,16.40
2017,09,02,00,16,16.40
2017,09,02,00,17,16.40
2017,09,02,00,18,16.40
2017,09,02,00,19,16.40
2017,09,02,00,20,16.40
2017,09,02,00,21,16.40
2017,09,02,00,22,16.40
2017,09,02,00,23,16.40
2017,09,02,00,24,16.50
2017,09,02,00,25,16.50
2017,09,02,00,26,16.50
2017,09,02,00,27,16.40
2017,09,02,00,28,16.40
2017,09,02,00,29,16.40
2017,09,02,00,30,16.40
2017,09,02,00,31,16.40
2017,09,02,00,32,16.30
2017,09,02,00,33,16.30
2017,09,02,00,34,16.30
2017,09,02,00,35,16.20
2017,09,02,00,36,16.20
2017,09,02,00,37,16.20
2017,09,02,00,38,16.20
2017,09,02,00,39,16.20
2017,09,02,00,40,16.10
2017,09,02,00,41,16.10
2017,09,02,00,42,16.10
2017,09,02,00,43,16.10
2017,09,02,00,44,16.10
2017,09,02,00,45,16.00
2017,09,02,00,46,16.00
2017,09,02,00,47,16.00
2017,09,02,00,48,16.00
2017,09,02,00,49,16.00
2017,09,02,00,50,15.90
2017,09,02,00,51,15.90
2017,09,02,00,52,15.90
2017,09,02,00,53,15.90
2017,09,02,00,54,15.90
2017,09,02,00,55,15.90
2017,09,02,00,56,15.90
2017,09,02,00,57,15.90
2017,09,02,00,58,15.90
2017,09,02,00,59,15.90
2017,09,02,01,00,15.90
2017,09,02,01,01,15.90
2017,09,02,01,02,15.90
2017,09,02,01,03,15.90
2017,09,02,01,04,15.90
2017,09,02,01,05,15.90
2017,09,02,01,06,15.90
2017,09,02,01,07,15.90
2017,09,02,01,08,15.90
2017,09,02,01,09,15.90
2017,09,02,01,10,15.80
2017,09,02,01,11,15.80
2017,09,02,01,12,15.80
2017,09,02,01,13,15.80
2017,09,02,01,14,15.80
2017,09,02,01,15,15.80
2017,09,02,01,16,15.80
2017,09,02,01,17,15.80
2017,09,02,01,18,15.80
2017,09,02,01,19,15.80
2017,09,02,01,20,15.80
2017,09,02,01,21,15.80
2017,09,02,01,22,15.80
2017,09,02,01,23,15.70
2017,09,02,01,24,15.70
2017,09,02,01,25,15.70
2017,09,02,01,26,15.70
2017,09,02,01,27,15.60
2017,09,02,01,28,15.60
2017,09,02,01,29,15.50
2017,09,02,01,30,15.40
2017,09,02,01,31,15.40
2017,09,02,01,32,15.40
2017,09,02,01,33,15.30
2017,09,02,01,34,15.30
2017,09,02,01,35,15.20
2017,09,02,01,36,15.20
2017,09,02,01,37,15.20
2017,09,02,01,38,15.20
2017,09,02,01,39,15.10
2017,09,02,01,40,15.10
2017,09,02,01,41,15.10
2017,09,02,01,42,15.10
2017,09,02,01,43,15.10
2017,09,02,01,44,15.00
2017,09,02,01,45,15.00
2017,09,02,01,46,15.10
2017,09,02,01,47,15.10
2017,09,02,01,48,15.10
2017,09,02,01,49,15.20
2017,09,02,01,50,15.20
2017,09,02,01,51,15.20
2017,09,02,01,52,15.30
2017,09,02,01,53,15.30
2017,09,02,01,54,15.30
2017,09,02,01,55,15.30
2017,09,02,01,56,15.30
2017,09,02,01,57,15.30
2017,09,02,01,58,15.40
2017,09,02,01,59,15.40
2017,09,02,02,00,15.50
2017,09,02,02,01,15.50
2017,09,02,02,02,15.60
2017,09,02,02,03,15.60
2017,09,02,02,04,15.60
2017,09,02,02,05,15.60
2017,09,02,02,06,15.60
2017,09,02,02,07,15.60
2017,09,02,02,08,15.60
2017,09,02,02,09,15.60
2017,09,02,02,10,15.60
2017,09,02,02,11,15.60
2017,09,02,02,12,15.60
2017,09,02,02,13,15.60
2017,09,02,02,14,15.60
2017,09,02,02,15,15.70
2017,09,02,02,16,15.70
2017,09,02,02,17,15.70
2017,09,02,02,18,15.60
2017,09,02,02,19,15.60
2017,09,02,02,20,15.60
2017,09,02,02,21,15.60
2017,09,02,02,22,15.60
2017,09,02,02,23,15.60
2017,09,02,02,24,15.50
2017,09,02,02,25,15.50
2017,09,02,02,26,15.50
2017,09,02,02,27,15.40
2017,09,02,02,28,15.30
2017,09,02,02,29,15.30
2017,09,02,02,30,15.30
2017,09,02,02,31,15.30
2017,09,02,02,32,15.40
2017,09,02,02,33,15.40
2017,09,02,02,34,15.40
2017,09,02,02,35,15.40
2017,09,02,02,36,15.50
2017,09,02,02,37,15.50
2017,09,02,02,38,15.60
2017,09,02,02,39,15.60
2017,09,02,02,40,15.60
2017,09,02,02,41,15.70
2017,09,02,02,42,15.70
2017,09,02,02,43,15.70
2017,09,02,02,44,15.70
2017,09,02,02,45,15.70
2017,09,02,02,46,15.70
2017,09,02,02,47,15.70
2017,09,02,02,48,15.70
2017,09,02,02,49,15.70
2017,09,02,02,50,15.70
2017,09,02,02,51,15.70
2017,09,02,02,52,15.80
2017,09,02,02,53,15.80
2017,09,02,02,54,15.80
2017,09,02,02,55,15.80
2017,09,02,02,56,15.70
2017,09,02,02,57,15.70
2017,09,02,02,58,15.70
2017,09,02,02,59,15.60
2017,09,02,03,00,15.60
2017,09,02,03,01,15.50
2017,09,02,03,02,15.50
2017,09,02,03,03,15.50
2017,09,02,03,04,15.50
2017,09,02,03,05,15.50
2017,09,02,03,06,15.60
2017,09,02,03,07,15.60
2017,09,02,03,08,15.60
2017,09,02,03,09,15.70
2017,09,02,03,10,15.70
2017,09,02,03,11,15.70
2017,09,02,03,12,15.80
2017,09,02,03,13,15.80
2017,09,02,03,14,15.80
2017,09,02,03,15,15.80
2017,09,02,03,16,15.80
2017,09,02,03,17,15.80
2017,09,02,03,18,15.80
2017,09,02,03,19,15.80
2017,09,02,03,20,15.80
2017,09,02,03,21,15.80
2017,09,02,03,22,15.70
2017,09,02,03,23,15.70
2017,09,02,03,24,15.70
2017,09,02,03,25,15.70
2017,09,02,03,26,15.60
2017,09,02,03,27,15.60
2017,09,02,03,28,15.60
2017,09,02,03,29,15.60
2017,09,02,03,30,15.70
2017,09,02,03,31,15.70
2017,09,02,03,32,15.70
2017,09,02,03,33,15.70
2017,09,02,03,34,15.70
2017,09,02,03,35,15.70
2017,09,02,03,36,15.60
2017,09,02,03,37,15.70
2017,09,02,03,38,15.70
2017,09,02,03,39,15.70
2017,09,02,03,40,15.70
2017,09,02,03,41,15.70
2017,09,02,03,42,15.70
2017,09,02,03,43,15.80
2017,09,02,03,44,15.80
2017,09,02,03,45,15.80
2017,09,02,03,46,15.80
2017,09,02,03,47,15.80
2017,09,02,03,48,15.90
2017,09,02,03,49,15.90
2017,09,02,03,50,15.90
2017,09,02,03,51,15.90
2017,09,02,03,52,16.00
2017,09,02,03,53,16.00
2017,09,02,03,54,16.00
2017,09,02,03,55,16.00
2017,09,02,03,56,16.00
2017,09,02,03,57,16.10
2017,09,02,03,58,16.10
2017,09,02,03,59,16.10
2017,09,02,04,00,16.10
2017,09,02,04,01,16.10
2017,09,02,04,02,16.10
2017,09,02,04,03,16.10
2017,09,02,04,04,16.10
2017,09,02,04,05,16.10
2017,09,02,04,06,16.10
2017,09,02,04,07,16.10
2017,09,02,04,08,16.10
2017,09,02,04,09,16.10
2017,09,02,04,10,16.10
2017,09,02,04,11,16.10
2017,09,02,04,12,16.10
2017,09,02,04,13,16.20
2017,09,02,04,14,16.30
2017,09,02,04,15,16.30
2017,09,02,04,16,16.40
2017,09,02,04,17,16.50
2017,09,02,04,18,16.60
2017,09,02,04,19,16.60
2017,09,02,04,20,16.70
2017,09,02,04,21,16.70
2017,09,02,04,22,16.80
2017,09,02,04,23,16.80
2017,09,02,04,24,16.90
2017,09,02,04,25,16.90
2017,09,02,04,26,16.80
2017,09,02,04,27,16.80
2017,09,02,04,28,16.80
2017,09,02,04,29,16.80
2017,09,02,04,30,16.70
2017,09,02,04,31,16.70
2017,09,02,04,32,16.60
2017,09,02,04,33,16.50
2017,09,02,04,34,16.40
2017,09,02,04,35,16.30
2017,09,02,04,36,16.30
2017,09,02,04,37,16.20
2017,09,02,04,38,16.10
2017,09,02,04,39,16.10
2017,09,02,04,40,16.10
2017,09,02,04,41,16.10
2017,09,02,04,42,16.10
2017,09,02,04,43,16.10
2017,09,02,04,44,16.10
2017,09,02,04,45,16.10
2017,09,02,04,46,16.10
2017,09,02,04,47,16.00
2017,09,02,04,48,16.00
2017,09,02,04,49,15.90
2017,09,02,04,50,15.90
2017,09,02,04,51,15.80
2017,09,02,04,52,15.80
2017,09,02,04,53,15.80
2017,09,02,04,54,15.80
2017,09,02,04,55,15.80
2017,09,02,04,56,15.90
2017,09,02,04,57,15.90
2017,09,02,04,58,15.90
2017,09,02,04,59,15.90
2017,09,02,05,00,16.00
2017,09,02,05,01,16.00
2017,09,02,05,02,16.00
2017,09,02,05,03,16.10
2017,09,02,05,04,16.10
2017,09,02,05,05,16.10
2017,09,02,05,06,16.10
2017,09,02,05,07,16.10
2017,09,02,05,08,16.00
2017,09,02,05,09,16.00
2017,09,02,05,10,16.00
2017,09,02,05,11,16.00
2017,09,02,05,12,16.00
2017,09,02,05,13,16.00
2017,09,02,05,14,16.00
2017,09,02,05,15,16.00
2017,09,02,05,16,15.90
2017,09,02,05,17,15.90
2017,09,02,05,18,15.90
2017,09,02,05,19,15.80
2017,09,02,05,20,15.70
2017,09,02,05,21,15.70
2017,09,02,05,22,15.60
2017,09,02,05,23,15.50
2017,09,02,05,24,15.40
2017,09,02,05,25,15.30
2017,09,02,05,26,15.20
2017,09,02,05,27,15.20
2017,09,02,05,28,15.10
2017,09,02,05,29,15.10
2017,09,02,05,30,15.10
2017,09,02,05,31,15.00
2017,09,02,05,32,15.00
2017,09,02,05,33,15.00
2017,09,02,05,34,15.00
2017,09,02,05,35,15.00
2017,09,02,05,36,15.00
2017,09,02,05,37,15.10
2017,09,02,05,38,15.10
2017,09,02,05,39,15.10
2017,09,02,05,40,15.20
2017,09,02,05,41,15.20
2017,09,02,05,42,15.10
2017,09,02,05,43,15.10
2017,09,02,05,44,15.10
2017,09,02,05,45,15.20
2017,09,02,05,46,15.20
2017,09,02,05,47,15.30
2017,09,02,05,48,15.30
2017,09,02,05,49,15.40
2017,09,02,05,50,15.50
2017,09,02,05,51,15.50
2017,09,02,05,52,15.60
2017,09,02,05,53,15.60
2017,09,02,05,54,15.60
2017,09,02,05,55,15.70
2017,09,02,05,56,15.70
2017,09,02,05,57,15.70
2017,09,02,05,58,15.70
2017,09,02,05,59,15.70
2017,09,02,06,00,15.70
2017,09,02,06,01,15.70
2017,09,02,06,02,15.70
2017,09,02,06,03,15.70
2017,09,02,06,04,15.70
2017,09,02,06,05,15.70
2017,09,02,06,06,15.60
2017,09,02,06,07,15.60
2017,09,02,06,08,15.60
2017,09,02,06,09,15.50
2017,09,02,06,10,15.50
2017,09,02,06,11,15.40
2017,09,02,06,12,15.40
2017,09,02,06,13,15.40
2017,09,02,06,14,15.30
2017,09,02,06,15,15.30
2017,09,02,06,16,15.30
2017,09,02,06,17,15.30
2017,09,02,06,18,15.30
2017,09,02,06,19,15.20
2017,09,02,06,20,15.20
2017,09,02,06,21,15.20
2017,09,02,06,22,15.20
2017,09,02,06,23,15.20
2017,09,02,06,24,15.20
2017,09,02,06,25,15.20
2017,09,02,06,26,15.20
2017,09,02,06,27,15.10
2017,09,02,06,28,15.10
2017,09,02,06,29,15.10
2017,09,02,06,30,15.00
2017,09,02,06,31,15.00
2017,09,02,06,32,15.00
2017,09,02,06,33,15.00
2017,09,02,06,34,15.00
2017,09,02,06,35,15.00
2017,09,02,06,36,15.10
2017,09,02,06,37,15.10
2017,09,02,06,38,15.10
2017,09,02,06,39,15.10
2017,09,02,06,40,15.10
2017,09,02,06,41,15.10
2017,09,02,06,42,15.10
2017,09,02,06,43,15.10
2017,09,02,06,44,15.10
2017,09,02,06,45,15.10
2017,09,02,06,46,15.10
2017,09,02,06,47,15.10
2017,09,02,06,48,15.10
2017,09,02,06,49,15.20
2017,09,02,06,50,15.20
2017,09,02,06,51,15.20
2017,09,02,06,52,15.20
2017,09,02,06,53,15.20
2017,09,02,06,54,15.20
2017,09,02,06,55,15.20
2017,09,02,06,56,15.20
2017,09,02,06,57,15.20
2017,09,02,06,58,15.20
2017,09,02,06,59,15.20
2017,09,02,07,00,15.20
2017,09,02,07,01,15.20
2017,09,02,07,02,15.30
2017,09,02,07,03,15.30
2017,09,02,07,04,15.30
2017,09,02,07,05,15.30
2017,09,02,07,06,15.40
2017,09,02,07,07,15.40
2017,09,02,07,08,15.40
2017,09,02,07,09,15.50
2017,09,02,07,10,15.50
2017,09,02,07,11,15.50
2017,09,02,07,12,15.60
2017,09,02,07,13,15.60
2017,09,02,07,14,15.60
2017,09,02,07,15,15.60
2017,09,02,07,16,15.70
2017,09,02,07,17,15.70
2017,09,02,07,18,15.80
2017,09,02,07,19,15.90
2017,09,02,07,20,15.90
2017,09,02,07,21,15.90
2017,09,02,07,22,16.00
2017,09,02,07,23,16.10
2017,09,02,07,24,16.10
2017,09,02,07,25,16.20
2017,09,02,07,26,16.20
2017,09,02,07,27,16.30
2017,09,02,07,28,16.30
2017,09,02,07,29,16.40
2017,09,02,07,30,16.50
2017,09,02,07,31,16.50
2017,09,02,07,32,16.60
2017,09,02,07,33,16.60
2017,09,02,07,34,16.70
2017,09,02,07,35,16.80
2017,09,02,07,36,16.80
2017,09,02,07,37,16.90
2017,09,02,07,38,17.00
2017,09,02,07,39,17.00
2017,09,02,07,40,17.10
2017,09,02,07,41,17.20
2017,09,02,07,42,17.20
2017,09,02,07,43,17.30
2017,09,02,07,44,17.30
2017,09,02,07,45,17.30
2017,09,02,07,46,17.40
2017,09,02,07,47,17.40
2017,09,02,07,48,17.40
2017,09,02,07,49,17.40
2017,09,02,07,50,17.40
2017,09,02,07,51,17.50
2017,09,02,07,52,17.50
2017,09,02,07,53,17.60
2017,09,02,07,54,17.60
2017,09,02,07,55,17.70
2017,09,02,07,56,17.90
2017,09,02,07,57,18.00
2017,09,02,07,58,18.20
2017,09,02,07,59,18.30
2017,09,02,08,00,18.40
2017,09,02,08,01,18.40
2017,09,02,08,02,18.50
2017,09,02,08,03,18.60
2017,09,02,08,04,18.60
2017,09,02,08,05,18.60
2017,09,02,08,06,18.70
2017,09,02,08,07,18.80
2017,09,02,08,08,18.80
2017,09,02,08,09,18.90
2017,09,02,08,10,18.90
2017,09,02,08,11,19.00
2017,09,02,08,12,19.00
2017,09,02,08,13,19.00
2017,09,02,08,14,19.00
2017,09,02,08,15,19.00
2017,09,02,08,16,19.10
2017,09,02,08,17,19.10
2017,09,02,08,18,19.20
2017,09,02,08,19,19.20
2017,09,02,08,20,19.30
2017,09,02,08,21,19.30
2017,09,02,08,22,19.40
2017,09,02,08,23,19.50
2017,09,02,08,24,19.60
2017,09,02,08,25,19.70
2017,09,02,08,26,19.70
2017,09,02,08,27,19.80
2017,09,02,08,28,19.90
2017,09,02,08,29,20.00
2017,09,02,08,30,20.10
2017,09,02,08,31,20.20
2017,09,02,08,32,20.20
2017,09,02,08,33,20.30
2017,09,02,08,34,20.30
2017,09,02,08,35,20.30
2017,09,02,08,36,20.30
2017,09,02,08,37,20.40
2017,09,02,08,38,20.50
2017,09,02,08,39,20.60
2017,09,02,08,40,20.70
2017,09,02,08,41,20.70
2017,09,02,08,42,20.70
2017,09,02,08,43,20.80
2017,09,02,08,44,20.80
2017,09,02,08,45,20.80
2017,09,02,08,46,20.80
2017,09,02,08,47,20.80
2017,09,02,08,48,20.90
2017,09,02,08,49,20.90
2017,09,02,08,50,20.90
2017,09,02,08,51,20.90
2017,09,02,08,52,20.90
2017,09,02,08,53,20.90
2017,09,02,08,54,21.00
2017,09,02,08,55,21.00
2017,09,02,08,56,21.00
2017,09,02,08,57,21.00
2017,09,02,08,58,21.10
2017,09,02,08,59,21.10
2017,09,02,09,00,21.10
2017,09,02,09,01,21.10
2017,09,02,09,02,21.10
2017,09,02,09,03,21.10
2017,09,02,09,04,21.10
2017,09,02,09,05,21.10
2017,09,02,09,06,21.10
2017,09,02,09,07,21.20
2017,09,02,09,08,21.20
2017,09,02,09,09,21.20
2017,09,02,09,10,21.30
2017,09,02,09,11,21.30
2017,09,02,09,12,21.30
2017,09,02,09,13,21.40
2017,09,02,09,14,21.40
2017,09,02,09,15,21.50
2017,09,02,09,16,21.50
2017,09,02,09,17,21.50
2017,09,02,09,18,21.60
2017,09,02,09,19,21.60
2017,09,02,09,20,21.60
2017,09,02,09,21,21.70
2017,09,02,09,22,21.80
2017,09,02,09,23,21.80
2017,09,02,09,24,21.80
2017,09,02,09,25,21.90
2017,09,02,09,26,22.00
2017,09,02,09,27,22.00
2017,09,02,09,28,22.10
2017,09,02,09,29,22.10
2017,09,02,09,30,22.10
2017,09,02,09,31,22.10
2017,09,02,09,32,22.10
2017,09,02,09,33,22.10
2017,09,02,09,34,22.10
2017,09,02,09,35,22.10
2017,09,02,09,36,22.10
2017,09,02,09,37,22.10
2017,09,02,09,38,22.10
2017,09,02,09,39,22.10
2017,09,02,09,40,22.10
2017,09,02,09,41,22.10
2017,09,02,09,42,22.20
2017,09,02,09,43,22.30
2017,09,02,09,44,22.30
2017,09,02,09,45,22.40
2017,09,02,09,46,22.40
2017,09,02,09,47,22.40
2017,09,02,09,48,22.30
2017,09,02,09,49,22.30
2017,09,02,09,50,22.30
2017,09,02,09,51,22.30
2017,09,02,09,52,22.30
2017,09,02,09,53,22.30
2017,09,02,09,54,22.30
2017,09,02,09,55,22.30
2017,09,02,09,56,22.30
2017,09,02,09,57,22.30
2017,09,02,09,58,22.30
2017,09,02,09,59,22.40
2017,09,02,10,00,22.40
2017,09,02,10,01,22.40
2017,09,02,10,02,22.40
2017,09,02,10,03,22.40
2017,09,02,10,04,22.50
2017,09,02,10,05,22.50
2017,09,02,10,06,22.50
2017,09,02,10,07,22.60
2017,09,02,10,08,22.60
2017,09,02,10,09,22.70
2017,09,02,10,10,22.70
2017,09,02,10,11,22.70
2017,09,02,10,12,22.80
2017,09,02,10,13,22.80
2017,09,02,10,14,22.90
2017,09,02,10,15,23.00
2017,09,02,10,16,23.10
2017,09,02,10,17,23.10
2017,09,02,10,18,23.20
2017,09,02,10,19,23.30
2017,09,02,10,20,23.30
2017,09,02,10,21,23.30
2017,09,02,10,22,23.40
2017,09,02,10,23,23.50
2017,09,02,10,24,23.50
2017,09,02,10,25,23.60
2017,09,02,10,26,23.60
2017,09,02,10,27,23.70
2017,09,02,10,28,23.60
2017,09,02,10,29,23.60
2017,09,02,10,30,23.60
2017,09,02,10,31,23.60
2017,09,02,10,32,23.60
2017,09,02,10,33,23.60
2017,09,02,10,34,23.60
2017,09,02,10,35,23.60
2017,09,02,10,36,23.70
2017,09,02,10,37,23.70
2017,09,02,10,38,23.70
2017,09,02,10,39,23.60
2017,09,02,10,40,23.60
2017,09,02,10,41,23.60
2017,09,02,10,42,23.70
2017,09,02,10,43,23.80
2017,09,02,10,44,23.80
2017,09,02,10,45,23.80
2017,09,02,10,46,23.80
2017,09,02,10,47,23.80
2017,09,02,10,48,23.90
2017,09,02,10,49,23.90
2017,09,02,10,50,24.00
2017,09,02,10,51,24.10
2017,09,02,10,52,24.10
2017,09,02,10,53,24.10
2017,09,02,10,54,24.20
2017,09,02,10,55,24.20
2017,09,02,10,56,24.20
2017,09,02,10,57,24.20
2017,09,02,10,58,24.20
2017,09,02,10,59,24.20
2017,09,02,11,00,24.30
2017,09,02,11,01,24.40
2017,09,02,11,02,24.50
2017,09,02,11,03,24.50
2017,09,02,11,04,24.50
2017,09,02,11,05,24.50
2017,09,02,11,06,24.50
2017,09,02,11,07,24.40
2017,09,02,11,08,24.30
2017,09,02,11,09,24.20
2017,09,02,11,10,24.20
2017,09,02,11,11,24.20
2017,09,02,11,12,24.20
2017,09,02,11,13,24.30
2017,09,02,11,14,24.40
2017,09,02,11,15,24.40
2017,09,02,11,16,24.40
2017,09,02,11,17,24.30
2017,09,02,11,18,24.20
2017,09,02,11,19,24.20
2017,09,02,11,20,24.20
2017,09,02,11,21,24.20
2017,09,02,11,22,24.20
2017,09,02,11,23,24.30
2017,09,02,11,24,24.30
2017,09,02,11,25,24.40
2017,09,02,11,26,24.40
2017,09,02,11,27,24.40
2017,09,02,11,28,24.40
2017,09,02,11,29,24.50
2017,09,02,11,30,24.40
2017,09,02,11,31,24.50
2017,09,02,11,32,24.50
2017,09,02,11,33,24.40
2017,09,02,11,34,24.40
2017,09,02,11,35,24.50
2017,09,02,11,36,24.50
2017,09,02,11,37,24.60
2017,09,02,11,38,24.70
2017,09,02,11,39,24.60
2017,09,02,11,40,24.50
2017,09,02,11,41,24.40
2017,09,02,11,42,24.40
2017,09,02,11,43,24.30
2017,09,02,11,44,24.30
2017,09,02,11,45,24.40
2017,09,02,11,46,24.40
2017,09,02,11,47,24.50
2017,09,02,11,48,24.50
2017,09,02,11,49,24.50
2017,09,02,11,50,24.60
2017,09,02,11,51,24.70
2017,09,02,11,52,24.70
2017,09,02,11,53,24.70
2017,09,02,11,54,24.70
2017,09,02,11,55,24.70
2017,09,02,11,56,24.70
2017,09,02,11,57,24.60
2017,09,02,11,58,24.60
2017,09,02,11,59,24.60
2017,09,02,12,00,24.60
2017,09,02,12,01,24.60
2017,09,02,12,02,24.60
2017,09,02,12,03,24.50
2017,09,02,12,04,24.40
2017,09,02,12,05,24.40
2017,09,02,12,06,24.30
2017,09,02,12,07,24.40
2017,09,02,12,08,24.40
2017,09,02,12,09,24.50
2017,09,02,12,10,24.60
2017,09,02,12,11,24.60
2017,09,02,12,12,24.50
2017,09,02,12,13,24.50
2017,09,02,12,14,24.60
2017,09,02,12,15,24.70
2017,09,02,12,16,24.70
2017,09,02,12,17,24.80
2017,09,02,12,18,24.90
2017,09,02,12,19,25.00
2017,09,02,12,20,25.00
2017,09,02,12,21,25.00
2017,09,02,12,22,24.90
2017,09,02,12,23,24.80
2017,09,02,12,24,24.70
2017,09,02,12,25,24.70
2017,09,02,12,26,24.60
2017,09,02,12,27,24.70
2017,09,02,12,28,24.70
2017,09,02,12,29,24.70
2017,09,02,12,30,24.80
2017,09,02,12,31,24.80
2017,09,02,12,32,24.80
2017,09,02,12,33,24.80
2017,09,02,12,34,24.70
2017,09,02,12,35,24.70
2017,09,02,12,36,24.60
2017,09,02,12,37,24.60
2017,09,02,12,38,24.60
2017,09,02,12,39,24.60
2017,09,02,12,40,24.60
2017,09,02,12,41,24.60
2017,09,02,12,42,24.60
2017,09,02,12,43,24.60
2017,09,02,12,44,24.70
2017,09,02,12,45,24.80
2017,09,02,12,46,24.90
2017,09,02,12,47,24.90
2017,09,02,12,48,24.90
2017,09,02,12,49,24.90
2017,09,02,12,50,24.90
2017,09,02,12,51,24.90
2017,09,02,12,52,25.00
2017,09,02,12,53,25.00
2017,09,02,12,54,25.10
2017,09,02,12,55,25.10
2017,09,02,12,56,25.10
2017,09,02,12,57,25.10
2017,09,02,12,58,25.10
2017,09,02,12,59,25.10
2017,09,02,13,00,25.20
2017,09,02,13,01,25.30
2017,09,02,13,02,25.30
2017,09,02,13,03,25.40
2017,09,02,13,04,25.40
2017,09,02,13,05,25.40
2017,09,02,13,06,25.30
2017,09,02,13,07,25.20
2017,09,02,13,08,25.20
2017,09,02,13,09,25.20
2017,09,02,13,10,25.10
2017,09,02,13,11,25.10
2017,09,02,13,12,24.90
2017,09,02,13,13,24.90
2017,09,02,13,14,24.80
2017,09,02,13,15,24.70
2017,09,02,13,16,24.70
2017,09,02,13,17,24.80
2017,09,02,13,18,24.80
2017,09,02,13,19,24.70
2017,09,02,13,20,24.70
2017,09,02,13,21,24.70
2017,09,02,13,22,24.70
2017,09,02,13,23,24.70
2017,09,02,13,24,24.70
2017,09,02,13,25,24.60
2017,09,02,13,26,24.60
2017,09,02,13,27,24.50
2017,09,02,13,28,24.50
2017,09,02,13,29,24.50
2017,09,02,13,30,24.40
2017,09,02,13,31,24.40
2017,09,02,13,32,24.40
2017,09,02,13,33,24.40
2017,09,02,13,34,24.40
2017,09,02,13,35,24.40
2017,09,02,13,36,24.50
2017,09,02,13,37,24.50
2017,09,02,13,38,24.50
2017,09,02,13,39,24.50
2017,09,02,13,40,24.60
2017,09,02,13,41,24.70
2017,09,02,13,42,24.70
2017,09,02,13,43,24.70
2017,09,02,13,44,24.70
2017,09,02,13,45,24.70
2017,09,02,13,46,24.70
2017,09,02,13,47,24.80
2017,09,02,13,48,24.90
2017,09,02,13,49,24.90
2017,09,02,13,50,24.90
2017,09,02,13,51,24.90
2017,09,02,13,52,24.90
2017,09,02,13,53,24.90
2017,09,02,13,54,24.80
2017,09,02,13,55,24.80
2017,09,02,13,56,24.90
2017,09,02,13,57,24.90
2017,09,02,13,58,25.00
2017,09,02,13,59,25.20
2017,09,02,14,00,25.30
2017,09,02,14,01,25.40
2017,09,02,14,02,25.40
2017,09,02,14,03,25.40
2017,09,02,14,04,25.40
2017,09,02,14,05,25.40
2017,09,02,14,06,25.30
2017,09,02,14,07,25.30
2017,09,02,14,08,25.20
2017,09,02,14,09,25.20
2017,09,02,14,10,25.20
2017,09,02,14,11,25.10
2017,09,02,14,12,25.10
2017,09,02,14,13,25.10
2017,09,02,14,14,25.20
2017,09,02,14,15,25.30
2017,09,02,14,16,25.30
2017,09,02,14,17,25.40
2017,09,02,14,18,25.40
2017,09,02,14,19,25.50
2017,09,02,14,20,25.60
2017,09,02,14,21,25.70
2017,09,02,14,22,25.70
2017,09,02,14,23,25.80
2017,09,02,14,24,25.80
2017,09,02,14,25,25.90
2017,09,02,14,26,25.80
2017,09,02,14,27,25.70
2017,09,02,14,28,25.70
2017,09,02,14,29,25.70
2017,09,02,14,30,25.70
2017,09,02,14,31,25.80
2017,09,02,14,32,25.80
2017,09,02,14,33,25.80
2017,09,02,14,34,25.80
2017,09,02,14,35,25.80
2017,09,02,14,36,25.80
2017,09,02,14,37,25.90
2017,09,02,14,38,25.90
2017,09,02,14,39,26.00
2017,09,02,14,40,26.10
2017,09,02,14,41,26.20
2017,09,02,14,42,26.30
2017,09,02,14,43,26.30
2017,09,02,14,44,26.30
2017,09,02,14,45,26.30
2017,09,02,14,46,26.40
2017,09,02,14,47,26.50
2017,09,02,14,48,26.60
2017,09,02,14,49,26.60
2017,09,02,14,50,26.50
2017,09,02,14,51,26.40
2017,09,02,14,52,26.40
2017,09,02,14,53,26.30
2017,09,02,14,54,26.30
2017,09,02,14,55,26.30
2017,09,02,14,56,26.40
2017,09,02,14,57,26.40
2017,09,02,14,58,26.50
2017,09,02,14,59,26.60
2017,09,02,15,00,26.60
2017,09,02,15,01,26.70
2017,09,02,15,02,26.80
2017,09,02,15,03,27.00
2017,09,02,15,04,27.10
2017,09,02,15,05,27.20
2017,09,02,15,06,27.40
2017,09,02,15,07,27.50
2017,09,02,15,08,27.60
2017,09,02,15,09,27.60
2017,09,02,15,10,27.60
2017,09,02,15,11,27.70
2017,09,02,15,12,27.70
2017,09,02,15,13,27.70
2017,09,02,15,14,27.70
2017,09,02,15,15,27.70
2017,09,02,15,16,27.70
2017,09,02,15,17,27.60
2017,09,02,15,18,27.60
2017,09,02,15,19,27.50
2017,09,02,15,20,27.40
2017,09,02,15,21,27.30
2017,09,02,15,22,27.30
2017,09,02,15,23,27.20
2017,09,02,15,24,27.20
2017,09,02,15,25,27.20
2017,09,02,15,26,27.10
2017,09,02,15,27,27.20
2017,09,02,15,28,27.20
2017,09,02,15,29,27.20
2017,09,02,15,30,27.30
2017,09,02,15,31,27.40
2017,09,02,15,32,27.50
2017,09,02,15,33,27.40
2017,09,02,15,34,27.30
2017,09,02,15,35,27.20
2017,09,02,15,36,27.10
2017,09,02,15,37,27.00
2017,09,02,15,38,27.00
2017,09,02,15,39,26.90
2017,09,02,15,40,26.90
2017,09,02,15,41,26.90
2017,09,02,15,42,26.90
2017,09,02,15,43,26.90
2017,09,02,15,44,26.90
2017,09,02,15,45,26.90
2017,09,02,15,46,26.90
2017,09,02,15,47,26.90
2017,09,02,15,48,26.90
2017,09,02,15,49,27.00
2017,09,02,15,50,27.00
2017,09,02,15,51,27.00
2017,09,02,15,52,26.90
2017,09,02,15,53,26.80
2017,09,02,15,54,26.80
2017,09,02,15,55,26.70
2017,09,02,15,56,26.70
2017,09,02,15,57,26.70
2017,09,02,15,58,26.60
2017,09,02,15,59,26.60
2017,09,02,16,00,26.50
2017,09,02,16,01,26.40
2017,09,02,16,02,26.30
2017,09,02,16,03,26.30
2017,09,02,16,04,26.40
2017,09,02,16,05,26.40
2017,09,02,16,06,26.40
2017,09,02,16,07,26.40
2017,09,02,16,08,26.40
2017,09,02,16,09,26.40
2017,09,02,16,10,26.40
2017,09,02,16,11,26.40
2017,09,02,16,12,26.50
2017,09,02,16,13,26.50
2017,09,02,16,14,26.60
2017,09,02,16,15,26.60
2017,09,02,16,16,26.60
2017,09,02,16,17,26.60
2017,09,02,16,18,26.60
2017,09,02,16,19,26.70
2017,09,02,16,20,26.70
2017,09,02,16,21,26.70
2017,09,02,16,22,26.70
2017,09,02,16,23,26.70
2017,09,02,16,24,26.70
2017,09,02,16,25,26.70
2017,09,02,16,26,26.70
2017,09,02,16,27,26.60
2017,09,02,16,28,26.60
2017,09,02,16,29,26.60
2017,09,02,16,30,26.60
2017,09,02,16,31,26.60
2017,09,02,16,32,26.60
2017,09,02,16,33,26.60
2017,09,02,16,34,26.60
2017,09,02,16,35,26.60
2017,09,02,16,36,26.60
2017,09,02,16,37,26.60
2017,09,02,16,38,26.70
2017,09,02,16,39,26.70
2017,09,02,16,40,26.70
2017,09,02,16,41,26.70
2017,09,02,16,42,26.70
2017,09,02,16,43,26.60
2017,09,02,16,44,26.60
2017,09,02,16,45,26.60
2017,09,02,16,46,26.70
2017,09,02,16,47,26.80
2017,09,02,16,48,26.80
2017,09,02,16,49,26.80
2017,09,02,16,50,26.80
2017,09,02,16,51,26.80
2017,09,02,16,52,26.90
2017,09,02,16,53,26.90
2017,09,02,16,54,27.00
2017,09,02,16,55,27.00
2017,09,02,16,56,27.10
2017,09,02,16,57,27.20
2017,09,02,16,58,27.20
2017,09,02,16,59,27.20
2017,09,02,17,00,27.00
2017,09,02,17,01,26.80
2017,09,02,17,02,26.70
2017,09,02,17,03,26.70
2017,09,02,17,04,26.70
2017,09,02,17,05,26.70
2017,09,02,17,06,26.70
2017,09,02,17,07,26.70
2017,09,02,17,08,26.70
2017,09,02,17,09,26.70
2017,09,02,17,10,26.80
2017,09,02,17,11,26.80
2017,09,02,17,12,26.80
2017,09,02,17,13,26.80
2017,09,02,17,14,26.80
2017,09,02,17,15,26.70
2017,09,02,17,16,26.70
2017,09,02,17,17,26.70
2017,09,02,17,18,26.70
2017,09,02,17,19,26.70